Regional Weather Roundup
Issued by NWS

Home | Current Version | Previous Version | Graphics & Text | Print | Product List | Glossary On
Versions: 1 2 3 4 5 6 7 8 9 10 11 12 13 14 15 16 17 18 19 20 21 22 23 24 25 26 27 28 29 30 31 32 33 34 35 36 37 38 39 40 41 42 43 44 45 46 47 48 49 50
000
ASUS43 KLMK 201402
RWRKY
KENTUCKY REGIONAL WEATHER ROUNDUP
NATIONAL WEATHER SERVICE LOUISVILLE KY
1000 AM EDT WED AUG 20 2014

NOTE "FAIR" INDICATES FEW OR NO CLOUDS BELOW 12,000 FEET
WITH NO SIGNIFICANT WEATHER AND/OR OBSTRUCTIONS TO VISIBILITY.

KYZ001>023-026-027-061>063-070>075-201500-
WESTERN AND SOUTH CENTRAL KENTUCKY

CITY           SKY/WX    TMP DP  RH WIND       PRES   REMARKS
PADUCAH        SUNNY     83  75  77 W7        29.94R HX  90
HENDERSON      MOSUNNY   81  73  78 NW5       29.92R
OWENSBORO      SUNNY     81  76  84 W3        29.94R
HOPKINSVILLE   SUNNY     83  79  90 SW12      29.96R FOG     HX  94
BOWLING GREEN  MOSUNNY   81  74  79 SW8       29.96R
GLASGOW        PTSUNNY   79  74  84 S3        29.96S
$$

KYZ024-025-028>034-038-045-046-053-201500-
NORTH CENTRAL KENTUCKY

CITY           SKY/WX    TMP DP  RH WIND       PRES   REMARKS
LOUISVILLE/SDF MOSUNNY   78  71  79 SW3       29.93S
LOUISVILLE/LOU SUNNY     77  71  82 S3        29.94S
FORT KNOX      NOT AVBL
$$

KYZ035>037-039>044-047>052-055>060-089>105-201500-
NORTHEAST KENTUCKY

CITY           SKY/WX    TMP DP  RH WIND       PRES   REMARKS
LEXINGTON      PTSUNNY   79  70  74 S9        29.97R
COVINGTON      MOSUNNY   72  68  87 S7        29.94R
FRANKFORT      SUNNY     77  71  82 S9        29.94S
$$

KYZ054-064>069-076>088-106>120-201500-
SOUTHEAST KENTUCKY

CITY           SKY/WX    TMP DP  RH WIND       PRES   REMARKS
JACKSON        SUNNY     71  67  87 VRB3      30.00S
LONDON         MOSUNNY   77  71  82 S5        30.01S
SOMERSET       CLOUDY    77  73  88 CALM      30.00S
MIDDLESBORO    PTSUNNY   75  71  86 CALM      30.02S
MONTICELLO     PTSUNNY   82  75  79 S5        30.00S
$$



USA.gov is the U.S. government's official web portal to all federal, state and local government web resources and services.